STARLINK-11378, 62020

Orbit data source: Space-Track

STARLINK-11378, 62020 is a payload satellite owned by SpaceX/Seattle (US) in LEO that was launched on Mon, 18 Nov 2024 UTC via an FALCON 9 launch vehicle from the Air Force Western Test Range (AFWTR). Payload-class satellites include a variety of spacecraft equipped with specific instruments for various scientific and technological missions. These include communications satellites like Starlink; space stations such as the ISS; scientific satellites like the Hubble; Earth observation satellites from companies like Planet Labs, Umbra, and HawkEye 360; GPS; miniature CubeSats for education and research; and military/defense satellites.

Loading next visibility...
Identifier
62020, 2024-213N
Orbit
LEO
Country
Flag of USUS
Related business
Manufacturer
SpaceX/Seattle
Mission
Operational Commercial Communications
Bus & Motor
STARLINK V2MD, Unknown motor
Mass
960 kg wet, ~910 kg dry
Launch date (UTC)
2024-11-18 (1 year ago)
Launch vehicle
FALCON 9
Launch site
Air Force Western Test Range (AFWTR)
Object type
Payload
Rocket body
Debris
Shape & HBR
Box + 2 Pan, 18.1 m
Radar Cross Section
36.964 m², Large (>1 m²)

Expand to show TLE details & history
Last TLE update: 6 hours ago

TLE from 6 hours ago
0 STARLINK-11378
1 62020U 24213N   26123.53336747  .00122946  00000-0  10024-2 0  9997
2 62020  53.1571 130.5585 0001089  82.2135 277.9007 15.69764677 83539
Epoch: 2026-05-03T12:48Z
TLE epoch observation values (Epoch: 2026-05-03T12:48:02.949Z)
Latitude
0.00002°
Longitude
77.11068°
Altitude
360.384 km
Speed
7.694 km/s
True Right ascension
08h 42m 14s
True Declination
0° 00' 00"
Sunlit
Object was in daylight at epoch
Visualization orbit readout
Latitude
Unknown
Longitude
Unknown
Altitude
Unknown
Speed
Unknown
Apparent Right ascension
Unknown
Apparent Declination
Unknown
Sunlit
N/A
Visualization observer readout
Local Sidereal Time
02:36:28
Azimuth
Unknown
Elevation
Unknown
Doppler factor
Unknown
Orbital elements
Apogee altitude
360.565 km
Perigee altitude
359.098 km
Semi-major axis
6,737.968 km
Eccentricity
0.00011
Inclination
53.1571°
RAAN
130.5585°
Arg. of periapsis
82.2135°
True anomaly
277.88834°
Mean anomaly
277.9007°
Eccentric anomaly
277.89452°
Mean motion
3.92419 °/min
Orbital period
91.74 mins
BSTAR
0.0010024
Loading maneuver chart data...
Computing Atmospheric mass density...
Loading historical data...
Loading historical data...
Loading historical data...
Loading historical data...
Loading historical data...
Loading historical data...
Loading historical data...

Documentation

Showing up to 5 results
|